Flag for U.S.A. Weather past 2 weeks in Winamac, Indiana, U.S.A.

Now
67 °F

Mostly cloudy.


Feels Like: 67 °F
Forecast: 64 / 80 °F
Wind: 3 mph from North

Location: Porter County Municipal Airport

Current Time: Aug 27, 2014 at 7:08:20 AM

Latest Report: Aug 27, 2014 at 5:53 AM


Visibility: 10 mi

Pressure: 30.11 "Hg

Humidity: 87%

Dew point: 63 °F

Location of WinamacLocation

Historic Weather in Winamac — Graph

°F

Winamac temperature yesterday

Maximum temperature yesterday: 79 °F (at 6:53 PM)
Minimum temperature yesterday: 68 °F (at 5:00 AM)
Average temperature yesterday: 71 °F

Past Weeks' High & Low Weather Summary

 TemperatureHumidityPressure
High88 °F (Aug 25, 2:53 PM)100% (Aug 21, 6:55 PM)30.12 "Hg (Aug 21, 6:55 PM)
Low44 °F (Aug 15, 6:53 AM)40% (Aug 15, 1:53 PM)29.73 "Hg (Aug 12, 5:53 AM)
Average70 °F83%29.96 "Hg
* Reported Aug 12 5:53 AM — Aug 27 5:53 AM, Winamac, Weather by CustomWeather, © 2014

Note: Actual official high and low records may vary slightly from our data, if they occured in-between our weather recording intervals... More about our weather records

Advertising

Winamac weather history for previous 24 hours

 ConditionsComfort  
Time TempWeatherWind HumidityBarometerVisibility
5:53 AM
Aug 27
67 °FMostly cloudy.3 mph87%30.11 "Hg10 mi
4:53 AM67 °FOvercast.No wind90%30.11 "Hg10 mi
3:53 AM67 °FPassing clouds.5 mph93%30.10 "Hg8 mi
2:53 AM67 °FFog.5 mph97%30.11 "Hg0 mi
1:53 AM67 °FFog.No wind97%30.12 "Hg1 mi
12:53 AM69 °FFog.No wind93%30.11 "Hg2 mi
11:53 PM
Aug 26
69 °FFog.5 mph96%30.09 "Hg0 mi
10:53 PM69 °FFog.5 mph96%30.09 "Hg2 mi
9:53 PM69 °FFog.No wind96%30.08 "Hg2 mi
8:53 PM72 °FMild.5 mph91%30.06 "Hg9 mi
7:53 PM76 °FSunny.No wind85%30.06 "Hg10 mi
6:53 PM79 °FSunny.5 mph77%30.06 "Hg10 mi
5:53 PM78 °FSunny.8 mph76%30.06 "Hg10 mi
4:53 PM75 °FSunny.8 mph82%30.08 "Hg10 mi
3:53 PM71 °FSunny.6 mph93%30.08 "Hg10 mi
2:53 PM71 °FSunny.5 mph96%30.12 "Hg10 mi
1:53 PM69 °FLight rain. Broken clouds.13 mph100%30.09 "Hg10 mi
12:53 PM75 °FMostly cloudy.9 mph88%30.10 "Hg8 mi
11:53 AM74 °FPartly sunny.6 mph88%30.10 "Hg10 mi
10:53 AM73 °FMild.6 mph84%30.11 "Hg10 mi
9:53 AM72 °FPartly sunny.7 mph93%30.09 "Hg10 mi
8:53 AM72 °FPartly sunny.10 mph91%30.09 "Hg10 mi
7:53 AM69 °FSunny.5 mph93%30.08 "Hg9 mi
Weather by CustomWeather, © 2014

See weather overviewHow to use our weather pages